Weather History for Fairfield, IA

Change the Weather History Date:

Wednesday, October 19, 2011

  Actual Average Record
Temperature  
Mean Temperature 46 °F -  
Max Temperature 51 °F 60 °F 82 °F (2000)
Min Temperature 42 °F 38 °F 17 °F (1972)
Degree Days  
Heating Degree Days 18    
Moisture  
Dew Point 32 °F    
Average Humidity 62    
Maximum Humidity 81    
Minimum Humidity 43    
Precipitation  
Precipitation 0.00 in - - ()
Sea Level Pressure  
Sea Level Pressure 29.90 in    
Wind  
Wind Speed 15 mph (NNW)    
Max Wind Speed 26 mph    
Max Gust Speed 31 mph    
Visibility 10 miles    
Events Rain    
Averages and records for this station are not official NWS values.
T = Trace of Precipitation, MM = Missing Value Source: NWS Daily Summary

Daily Weather History Graph

Daily Weather History Graph

Search for Another Location

Airport:

Trip Planner

Search our weather history database for the weather conditions in past years. The results will help you decide how hot, cold, wet, or windy it might be!

Date:

Astronomy

Oct. 19, 2011 Rise Set
Actual Time 7:23 AM CDT 6:21 PM CDT
Civil Twilight 6:55 AM CDT 6:49 PM CDT
Nautical Twilight 6:23 AM CDT 7:21 PM CDT
Astronomical Twilight 5:51 AM CDT 7:53 PM CDT
Moon No Moon Rise 1:56 PM CDT (10/19)
Length of Visible Light 11h 53m
Length of Day
10h 58m
Waning Gibbous, 54% of the Moon is Illuminated
Oct 19
Waning Gibbous
Oct 19
Last Quarter
Oct 26
New
Nov 2
First Quarter
Nov 10
Full

Hourly Weather History & Observations

Time (CDT) Temp. Windchill Dew Point Humidity Pressure Visibility Wind Dir Wind Speed Gust Speed Precip Events Conditions
12:35 AM 42.8 °F 36.6 °F 33.8 °F 70% 29.92 in 10.0 mi NNW 11.5 mph - N/A   Overcast
12:55 AM 42.8 °F 35.8 °F 33.8 °F 70% 29.91 in 10.0 mi NNW 13.8 mph - N/A   Overcast
1:15 AM 42.8 °F 36.2 °F 33.8 °F 70% 29.91 in 10.0 mi NNW 12.7 mph - N/A   Overcast
1:35 AM 42.8 °F 35.4 °F 33.8 °F 70% 29.91 in 10.0 mi North 15.0 mph - N/A   Overcast
1:55 AM 42.8 °F 35.4 °F 33.8 °F 70% 29.90 in 10.0 mi North 15.0 mph - N/A   Overcast
2:15 AM 42.8 °F 36.2 °F 33.8 °F 70% 29.90 in 10.0 mi North 12.7 mph - N/A   Overcast
2:35 AM 42.8 °F 35.8 °F 33.8 °F 70% 29.90 in 10.0 mi North 13.8 mph - N/A   Overcast
2:55 AM 42.8 °F 35.1 °F 33.8 °F 70% 29.90 in 10.0 mi NNW 16.1 mph - N/A   Overcast
3:15 AM 42.8 °F 35.1 °F 33.8 °F 70% 29.89 in 10.0 mi NNW 16.1 mph 19.6 mph N/A   Overcast
3:35 AM 42.8 °F 35.4 °F 33.8 °F 70% 29.89 in 10.0 mi NNW 15.0 mph - N/A   Overcast
3:55 AM 42.8 °F 36.2 °F 33.8 °F 70% 29.89 in 10.0 mi NNW 12.7 mph - N/A   Overcast
4:15 AM 42.8 °F 36.6 °F 33.8 °F 70% 29.89 in 10.0 mi NNW 11.5 mph - N/A   Overcast
4:35 AM 42.8 °F 36.6 °F 33.8 °F 70% 29.89 in 10.0 mi North 11.5 mph - N/A   Overcast
4:55 AM 42.8 °F 36.2 °F 33.8 °F 70% 29.89 in 10.0 mi North 12.7 mph - N/A   Overcast
5:15 AM 42.8 °F 35.8 °F 35.6 °F 76% 29.89 in 10.0 mi NNW 13.8 mph - N/A   Overcast
5:35 AM 42.8 °F 36.2 °F 35.6 °F 76% 29.89 in 10.0 mi NNW 12.7 mph - N/A   Overcast
6:15 AM 42.8 °F 35.8 °F 35.6 °F 76% 29.90 in 10.0 mi NNW 13.8 mph - N/A   Overcast
6:35 AM 42.8 °F 36.2 °F 35.6 °F 76% 29.90 in 10.0 mi NNW 12.7 mph - N/A   Overcast
6:55 AM 42.8 °F 35.4 °F 35.6 °F 76% 29.90 in 10.0 mi NNW 15.0 mph - N/A   Overcast
7:15 AM 42.8 °F 35.4 °F 35.6 °F 76% 29.90 in 10.0 mi North 15.0 mph - N/A Rain Light Rain
7:35 AM 42.8 °F 35.1 °F 35.6 °F 76% 29.90 in 10.0 mi North 16.1 mph 19.6 mph N/A Rain Light Rain
7:55 AM 42.8 °F 35.4 °F 35.6 °F 76% 29.90 in 10.0 mi NNW 15.0 mph - N/A   Light Drizzle
8:15 AM 42.8 °F 35.4 °F 35.6 °F 76% 29.91 in 10.0 mi North 15.0 mph - N/A   Overcast
8:35 AM 42.8 °F 35.8 °F 35.6 °F 76% 29.91 in 10.0 mi NNW 13.8 mph - N/A   Overcast
8:55 AM 42.8 °F 35.4 °F 35.6 °F 76% 29.92 in 10.0 mi NNW 15.0 mph 20.7 mph N/A   Overcast
9:15 AM 42.8 °F 35.4 °F 35.6 °F 76% 29.92 in 10.0 mi North 15.0 mph - N/A   Drizzle
9:35 AM 42.8 °F 35.1 °F 35.6 °F 76% 29.92 in 10.0 mi North 16.1 mph 20.7 mph N/A   Light Drizzle
9:55 AM 42.8 °F 34.8 °F 37.4 °F 81% 29.93 in 10.0 mi North 17.3 mph - N/A Rain Light Rain
10:15 AM 42.8 °F 34.3 °F 37.4 °F 81% 29.92 in 10.0 mi NNW 19.6 mph - N/A   Overcast
10:35 AM 44.6 °F 37.4 °F 37.4 °F 76% 29.92 in 10.0 mi North 16.1 mph - N/A   Overcast
11:15 AM 46.4 °F 39.8 °F 35.6 °F 66% 29.91 in 10.0 mi North 16.1 mph - N/A   Mostly Cloudy
11:55 AM 51.8 °F - 30.2 °F 44% 29.90 in 10.0 mi North 18.4 mph 25.3 mph N/A   Mostly Cloudy
12:15 PM 48.2 °F - 28.4 °F 46% 29.90 in 10.0 mi North 18.4 mph 25.3 mph N/A   Overcast
12:35 PM 48.2 °F - 28.4 °F 46% 29.90 in 10.0 mi North 23.0 mph 26.5 mph N/A   Overcast
12:55 PM 48.2 °F - 30.2 °F 50% 29.90 in 10.0 mi NNW 23.0 mph 27.6 mph N/A   Overcast
1:15 PM 48.2 °F - 28.4 °F 46% 29.90 in 10.0 mi North 26.5 mph - N/A   Overcast
1:35 PM 48.2 °F - 30.2 °F 50% 29.90 in 10.0 mi North 19.6 mph 27.6 mph N/A   Overcast
1:55 PM 46.4 °F 39.2 °F 28.4 °F 50% 29.89 in 10.0 mi North 18.4 mph 27.6 mph N/A   Overcast
2:15 PM 48.2 °F - 28.4 °F 46% 29.88 in 10.0 mi NNW 21.9 mph 28.8 mph N/A   Overcast
2:35 PM 48.2 °F - 28.4 °F 46% 29.89 in 10.0 mi NNW 17.3 mph 26.5 mph N/A   Overcast
2:55 PM 48.2 °F - 28.4 °F 46% 29.88 in 10.0 mi North 21.9 mph 26.5 mph N/A   Overcast
3:15 PM 48.2 °F - 28.4 °F 46% 29.88 in 10.0 mi North 16.1 mph - N/A   Overcast
3:55 PM 50.0 °F - 28.4 °F 43% 29.88 in 10.0 mi North 23.0 mph 26.5 mph N/A   Overcast
4:15 PM 50.0 °F - 28.4 °F 43% 29.89 in 10.0 mi NNW 21.9 mph 27.6 mph N/A   Overcast
4:35 PM 50.0 °F - 28.4 °F 43% 29.89 in 10.0 mi North 20.7 mph 29.9 mph N/A   Overcast
4:55 PM 48.2 °F - 30.2 °F 50% 29.89 in 10.0 mi NNW 20.7 mph 27.6 mph N/A   Overcast
5:15 PM 48.2 °F - 30.2 °F 50% 29.88 in 10.0 mi NNW 18.4 mph 26.5 mph N/A   Overcast
5:35 PM 48.2 °F - 30.2 °F 50% 29.88 in 10.0 mi NNW 18.4 mph 26.5 mph N/A   Overcast
5:55 PM 48.2 °F - 28.4 °F 46% 29.89 in 10.0 mi NNW 19.6 mph 25.3 mph N/A   Overcast
6:15 PM 48.2 °F - 30.2 °F 50% 29.90 in 10.0 mi North 15.0 mph - N/A   Overcast
6:35 PM 48.2 °F - 30.2 °F 50% 29.90 in 10.0 mi NNW 18.4 mph 24.2 mph N/A   Overcast
6:55 PM 48.2 °F - 30.2 °F 50% 29.90 in 10.0 mi NNW 13.8 mph - N/A   Overcast
7:15 PM 48.2 °F - 30.2 °F 50% 29.90 in 10.0 mi NNW 16.1 mph 23.0 mph N/A   Overcast
7:35 PM 46.4 °F 39.5 °F 30.2 °F 53% 29.90 in 10.0 mi NNW 17.3 mph 21.9 mph N/A   Overcast
7:55 PM 46.4 °F 38.1 °F 30.2 °F 53% 29.90 in 10.0 mi NNW 24.2 mph - N/A   Overcast
8:35 PM 46.4 °F 39.0 °F 30.2 °F 53% 29.91 in 10.0 mi NNW 19.6 mph 25.3 mph N/A   Overcast
8:55 PM 46.4 °F 38.7 °F 30.2 °F 53% 29.90 in 10.0 mi NNW 20.7 mph 31.1 mph N/A   Overcast
9:15 PM 46.4 °F 39.0 °F 30.2 °F 53% 29.90 in 10.0 mi NNW 19.6 mph 26.5 mph N/A   Overcast
9:35 PM 46.4 °F 39.2 °F 32.0 °F 57% 29.90 in 10.0 mi NNW 18.4 mph 24.2 mph N/A   Overcast
9:55 PM 44.6 °F 37.8 °F 30.2 °F 57% 29.90 in 10.0 mi NW 15.0 mph 21.9 mph N/A   Overcast
10:15 PM 44.6 °F 37.2 °F 30.2 °F 57% 29.90 in 10.0 mi NW 17.3 mph 24.2 mph N/A   Overcast
10:35 PM 44.6 °F 37.4 °F 30.2 °F 57% 29.90 in 10.0 mi NW 16.1 mph 20.7 mph N/A   Overcast
10:55 PM 44.6 °F 37.4 °F 30.2 °F 57% 29.89 in 10.0 mi NW 16.1 mph - N/A   Overcast
11:15 PM 44.6 °F 37.2 °F 32.0 °F 61% 29.89 in 10.0 mi NW 17.3 mph 23.0 mph N/A   Overcast
11:35 PM 42.8 °F 35.4 °F 30.2 °F 61% 29.88 in 10.0 mi NW 15.0 mph 21.9 mph N/A   Overcast
11:55 PM 42.8 °F 35.1 °F 30.2 °F 61% 29.88 in 10.0 mi NW 16.1 mph 23.0 mph N/A   Overcast